When you browse on this site, cookies collect data to enhance your experience and personalize the content and advertising you see.
Visit our Privacy Policy to learn more. By continuing to use the site, you agree to this use of cookies and data.
  • In Deutschland
  • Länderverzeichnis
  • Für 7 Tage
  • Wassertemperatur
  • Wetterkarte
  • Widgets
  • user-avatar
    Anmelden

    Stündliche Wetter Aachen

    Heute, 15 Oktober, Dienstag

    Zeit Temperatur Niederschläge Wind Luftdruck Luftfeuchtigkeit
    00:00 +17°C° 0.1 mm 3 m/S 740 mmHg 84%
    01:00 +16°C° 0 mm 3 m/S 740 mmHg 85%
    02:00 +16°C° 0 mm 3 m/S 739 mmHg 85%
    03:00 +15°C° 0 mm 2 m/S 739 mmHg 86%
    04:00 +15°C° 0 mm 2 m/S 739 mmHg 87%
    05:00 +15°C° 0 mm 2 m/S 739 mmHg 87%
    06:00 +15°C° 0 mm 2 m/S 739 mmHg 88%
    07:00 +15°C° 0.3 mm 2 m/S 739 mmHg 87%
    08:00 +16°C° 0.3 mm 2 m/S 739 mmHg 87%
    09:00 +16°C° 0.3 mm 2 m/S 739 mmHg 87%
    10:00 +16°C° 0.2 mm 2 m/S 739 mmHg 87%
    11:00 +16°C° 0.2 mm 3 m/S 739 mmHg 87%
    12:00 +16°C° 0.2 mm 3 m/S 739 mmHg 87%
    13:00 +14°C° 1.2 mm 3 m/S 739 mmHg 89%
    14:00 +13°C° 1.2 mm 3 m/S 738 mmHg 92%
    15:00 +13°C° 1.2 mm 3 m/S 738 mmHg 95%
    16:00 +12°C° 2 mm 3 m/S 739 mmHg 94%
    17:00 +12°C° 2 mm 4 m/S 739 mmHg 93%
    18:00 +12°C° 2 mm 4 m/S 740 mmHg 92%
    19:00 +12°C° 0.3 mm 4 m/S 740 mmHg 90%
    20:00 +11°C° 0.3 mm 4 m/S 741 mmHg 87%
    21:00 +10°C° 0.3 mm 5 m/S 741 mmHg 84%
    22:00 +10°C° 0.1 mm 5 m/S 741 mmHg 86%
    23:00 +11°C° 0.1 mm 4 m/S 741 mmHg 87%

    Morgen, 16 Oktober, Mittwoch

    Zeit Temperatur Niederschläge Wind Luftdruck Luftfeuchtigkeit
    00:00 +10°C° 0.1 mm 4 m/S 742 mmHg 88%
    01:00 +10°C° 0 mm 4 m/S 741 mmHg 88%
    02:00 +8°C° 0 mm 5 m/S 741 mmHg 88%
    03:00 +8°C° 0 mm 5 m/S 741 mmHg 88%
    04:00 +8°C° 0 mm 5 m/S 741 mmHg 89%
    05:00 +8°C° 0 mm 5 m/S 741 mmHg 89%
    06:00 +8°C° 0 mm 5 m/S 741 mmHg 90%
    07:00 +9°C° 0 mm 6 m/S 742 mmHg 87%
    08:00 +10°C° 0 mm 6 m/S 742 mmHg 84%
    09:00 +11°C° 0 mm 6 m/S 742 mmHg 81%
    10:00 +11°C° 0.2 mm 6 m/S 742 mmHg 83%
    11:00 +11°C° 0.2 mm 6 m/S 742 mmHg 85%
    12:00 +11°C° 0.2 mm 6 m/S 741 mmHg 87%
    13:00 +11°C° 0.1 mm 6 m/S 741 mmHg 86%
    14:00 +11°C° 0.1 mm 6 m/S 741 mmHg 86%
    15:00 +11°C° 0.1 mm 6 m/S 741 mmHg 85%
    16:00 +11°C° 0.1 mm 6 m/S 741 mmHg 83%
    17:00 +12°C° 0.1 mm 5 m/S 741 mmHg 82%
    18:00 +13°C° 0.1 mm 5 m/S 741 mmHg 80%
    19:00 +13°C° 0.1 mm 5 m/S 741 mmHg 80%
    20:00 +13°C° 0.1 mm 5 m/S 742 mmHg 80%
    21:00 +13°C° 0.1 mm 4 m/S 742 mmHg 80%
    22:00 +13°C° 0.5 mm 5 m/S 742 mmHg 83%
    23:00 +11°C° 0.5 mm 6 m/S 742 mmHg 86%

    übermorgen, 17 Oktober, Donnerstag

    Zeit Temperatur Niederschläge Wind Luftdruck Luftfeuchtigkeit
    00:00 +11°C° 0.5 mm 6 m/S 742 mmHg 89%
    01:00 +11°C° 0.2 mm 6 m/S 742 mmHg 89%
    02:00 +12°C° 0.2 mm 5 m/S 742 mmHg 90%
    03:00 +12°C° 0.2 mm 5 m/S 742 mmHg 91%
    04:00 +12°C° 0.2 mm 4 m/S 742 mmHg 91%
    05:00 +12°C° 0.2 mm 4 m/S 742 mmHg 91%
    06:00 +12°C° 0.2 mm 4 m/S 742 mmHg 91%
    07:00 +13°C° 0.1 mm 4 m/S 743 mmHg 89%
    08:00 +13°C° 0.1 mm 4 m/S 743 mmHg 87%
    09:00 +13°C° 0.1 mm 4 m/S 744 mmHg 85%
    10:00 +13°C° 0.1 mm 4 m/S 744 mmHg 82%
    11:00 +13°C° 0.1 mm 5 m/S 744 mmHg 78%
    12:00 +14°C° 0.1 mm 5 m/S 744 mmHg 75%
    13:00 +13°C° 0 mm 4 m/S 744 mmHg 73%
    14:00 +13°C° 0 mm 4 m/S 744 mmHg 71%
    15:00 +13°C° 0 mm 4 m/S 744 mmHg 69%
    16:00 +12°C° 0 mm 4 m/S 745 mmHg 73%
    17:00 +11°C° 0 mm 3 m/S 745 mmHg 77%
    18:00 +10°C° 0 mm 3 m/S 745 mmHg 81%
    19:00 +9°C° 0 mm 3 m/S 745 mmHg 83%
    20:00 +9°C° 0 mm 3 m/S 745 mmHg 85%
    21:00 +9°C° 0 mm 3 m/S 745 mmHg 87%
    22:00 +10°C° 0 mm 3 m/S 745 mmHg 86%
    23:00 +10°C° 0 mm 3 m/S 745 mmHg 85%

    18 Oktober, Freitag

    Zeit Temperatur Niederschläge Wind Luftdruck Luftfeuchtigkeit
    00:00 +11°C° 0 mm 3 m/S 744 mmHg 84%
    01:00 +11°C° 0.1 mm 4 m/S 744 mmHg 85%
    02:00 +11°C° 0.1 mm 4 m/S 744 mmHg 86%
    03:00 +12°C° 0.1 mm 4 m/S 744 mmHg 88%
    04:00 +12°C° 0.2 mm 4 m/S 743 mmHg 89%
    05:00 +12°C° 0.2 mm 4 m/S 743 mmHg 91%
    06:00 +12°C° 0.2 mm 4 m/S 743 mmHg 93%
    07:00 +12°C° 0.2 mm 4 m/S 743 mmHg 90%
    08:00 +13°C° 0.2 mm 5 m/S 744 mmHg 86%
    09:00 +13°C° 0.2 mm 5 m/S 744 mmHg 83%
    10:00 +14°C° 0.1 mm 6 m/S 744 mmHg 76%
    11:00 +14°C° 0.1 mm 6 m/S 744 mmHg 69%
    12:00 +15°C° 0.1 mm 6 m/S 744 mmHg 63%
    13:00 +15°C° 0 mm 6 m/S 744 mmHg 64%
    14:00 +15°C° 0 mm 5 m/S 744 mmHg 66%
    15:00 +15°C° 0 mm 4 m/S 744 mmHg 68%
    16:00 +13°C° 0 mm 4 m/S 744 mmHg 73%
    17:00 +12°C° 0 mm 3 m/S 744 mmHg 77%
    18:00 +10°C° 0 mm 3 m/S 744 mmHg 82%
    19:00 +10°C° 0 mm 3 m/S 744 mmHg 83%
    20:00 +10°C° 0 mm 3 m/S 745 mmHg 84%
    21:00 +10°C° 0 mm 3 m/S 745 mmHg 85%
    22:00 +10°C° 0 mm 3 m/S 744 mmHg 84%
    23:00 +10°C° 0 mm 3 m/S 744 mmHg 83%

    19 Oktober, Samstag

    Zeit Temperatur Niederschläge Wind Luftdruck Luftfeuchtigkeit
    00:00 +10°C° 0 mm 4 m/S 744 mmHg 82%
    01:00 +10°C° 0 mm 3 m/S 744 mmHg 83%
    02:00 +9°C° 0 mm 3 m/S 744 mmHg 83%
    03:00 +9°C° 0 mm 3 m/S 743 mmHg 84%
    04:00 +8°C° 0 mm 4 m/S 743 mmHg 85%
    05:00 +8°C° 0 mm 4 m/S 743 mmHg 87%
    06:00 +8°C° 0 mm 4 m/S 743 mmHg 89%
    07:00 +10°C° 0 mm 4 m/S 743 mmHg 84%
    08:00 +12°C° 0 mm 5 m/S 743 mmHg 79%
    09:00 +13°C° 0 mm 5 m/S 743 mmHg 74%
    10:00 +14°C° 0 mm 5 m/S 742 mmHg 71%
    11:00 +14°C° 0 mm 5 m/S 742 mmHg 69%
    12:00 +15°C° 0 mm 4 m/S 742 mmHg 67%
    13:00 +15°C° 0 mm 4 m/S 741 mmHg 69%
    14:00 +14°C° 0 mm 3 m/S 740 mmHg 72%
    15:00 +14°C° 0 mm 3 m/S 740 mmHg 75%
    16:00 +14°C° 1 mm 2 m/S 739 mmHg 81%
    17:00 +13°C° 1 mm 2 m/S 739 mmHg 87%
    18:00 +12°C° 1 mm 1 m/S 738 mmHg 94%
    19:00 +12°C° 2.3 mm 1 m/S 738 mmHg 95%
    20:00 +12°C° 2.3 mm 1 m/S 738 mmHg 95%
    21:00 +12°C° 2.3 mm 1 m/S 737 mmHg 96%
    22:00 +12°C° 0.1 mm 2 m/S 737 mmHg 95%
    23:00 +11°C° 0.1 mm 3 m/S 737 mmHg 94%

    20 Oktober, Sonntag

    Zeit Temperatur Niederschläge Wind Luftdruck Luftfeuchtigkeit
    00:00 +11°C° 0.1 mm 3 m/S 737 mmHg 92%
    01:00 +11°C° 0.1 mm 3 m/S 737 mmHg 92%
    02:00 +11°C° 0.1 mm 4 m/S 736 mmHg 92%
    03:00 +11°C° 0.1 mm 4 m/S 736 mmHg 91%
    04:00 +10°C° 0 mm 4 m/S 737 mmHg 91%
    05:00 +10°C° 0 mm 4 m/S 737 mmHg 91%
    06:00 +10°C° 0 mm 4 m/S 737 mmHg 90%
    07:00 +10°C° 0.1 mm 4 m/S 737 mmHg 88%
    08:00 +10°C° 0.1 mm 5 m/S 738 mmHg 85%
    09:00 +10°C° 0.1 mm 5 m/S 738 mmHg 82%
    10:00 +12°C° 0 mm 5 m/S 739 mmHg 77%
    11:00 +11°C° 0 mm 6 m/S 739 mmHg 73%
    12:00 +13°C° 0 mm 6 m/S 739 mmHg 68%
    13:00 +13°C° 0 mm 6 m/S 739 mmHg 69%
    14:00 +13°C° 0 mm 5 m/S 739 mmHg 70%
    15:00 +12°C° 0 mm 5 m/S 739 mmHg 71%
    16:00 +10°C° 0 mm 5 m/S 740 mmHg 75%
    17:00 +10°C° 0 mm 4 m/S 740 mmHg 79%
    18:00 +8°C° 0 mm 4 m/S 740 mmHg 84%
    19:00 +7°C° 0 mm 4 m/S 741 mmHg 83%
    20:00 +7°C° 0 mm 4 m/S 741 mmHg 82%
    21:00 +7°C° 0 mm 4 m/S 741 mmHg 82%
    22:00 +7°C° 0 mm 4 m/S 741 mmHg 84%
    23:00 +8°C° 0 mm 3 m/S 742 mmHg 86%
    Mehr zeigen